TimeCST,TemperatureF,Dew PointF,Humidity,Sea Level PressureIn,VisibilityMPH,Wind Direction,Wind SpeedMPH,Gust SpeedMPH,PrecipitationIn,Events,Conditions,WindDirDegrees,DateUTC
12:13 AM,26.6,19.4,74,29.66,10.0,WSW,8.1,-,N/A,,Clear,250,2013-02-05 06:13:00
12:34 AM,26.6,21.2,80,29.66,10.0,West,8.1,-,N/A,,Clear,260,2013-02-05 06:34:00
12:53 AM,26.6,21.2,80,29.65,10.0,West,16.1,19.6,N/A,,Clear,260,2013-02-05 06:53:00
1:13 AM,26.6,21.2,80,29.65,10.0,West,12.7,-,N/A,,Clear,260,2013-02-05 07:13:00
1:34 AM,28.4,21.2,74,29.64,10.0,West,13.8,-,N/A,,Clear,260,2013-02-05 07:34:00
1:53 AM,28.4,24.8,86,29.64,10.0,West,11.5,-,N/A,,Mostly Cloudy,270,2013-02-05 07:53:00
2:14 AM,30.2,24.8,80,29.65,10.0,West,13.8,-,N/A,,Overcast,280,2013-02-05 08:14:00
2:34 AM,30.2,24.8,80,29.65,10.0,WNW,10.4,-,N/A,,Mostly Cloudy,290,2013-02-05 08:34:00
2:53 AM,30.2,24.8,80,29.65,10.0,WNW,6.9,-,N/A,,Scattered Clouds,300,2013-02-05 08:53:00
3:14 AM,32.0,24.8,75,29.64,10.0,WNW,12.7,-,N/A,,Mostly Cloudy,290,2013-02-05 09:14:00
3:33 AM,30.2,26.6,86,29.65,10.0,North,10.4,-,N/A,,Overcast,350,2013-02-05 09:33:00
3:53 AM,30.2,26.6,86,29.65,7.0,NW,6.9,-,N/A,,Scattered Clouds,320,2013-02-05 09:53:00
4:14 AM,30.2,26.6,86,29.66,5.0,NW,5.8,-,N/A,Snow,Light Snow,310,2013-02-05 10:14:00
4:33 AM,32.0,26.6,80,29.67,7.0,West,6.9,-,N/A,Snow,Light Snow,280,2013-02-05 10:33:00
4:54 AM,32.0,28.4,87,29.68,10.0,WNW,8.1,-,N/A,,Overcast,290,2013-02-05 10:54:00
5:14 AM,33.8,28.4,81,29.68,10.0,WNW,9.2,-,N/A,Snow,Light Snow,300,2013-02-05 11:14:00
5:33 AM,33.8,28.4,81,29.69,10.0,NW,8.1,-,N/A,,Overcast,310,2013-02-05 11:33:00
6:13 AM,33.8,28.4,81,29.71,10.0,WNW,9.2,-,N/A,,Overcast,300,2013-02-05 12:13:00
6:34 AM,33.8,28.4,81,29.71,10.0,NW,10.4,-,N/A,,Overcast,310,2013-02-05 12:34:00
6:54 AM,33.8,28.4,81,29.72,10.0,NW,8.1,-,N/A,,Overcast,310,2013-02-05 12:54:00
7:13 AM,33.8,28.4,81,29.73,10.0,NW,9.2,-,N/A,,Overcast,310,2013-02-05 13:13:00
7:34 AM,33.8,28.4,81,29.75,10.0,NNW,10.4,-,N/A,,Overcast,340,2013-02-05 13:34:00
7:54 AM,32.0,28.4,87,29.77,10.0,North,15.0,-,N/A,,Overcast,360,2013-02-05 13:54:00
8:13 AM,30.2,26.6,86,29.78,10.0,NNW,13.8,-,N/A,,Overcast,340,2013-02-05 14:13:00
8:34 AM,30.2,26.6,86,29.79,10.0,North,11.5,-,N/A,,Overcast,350,2013-02-05 14:34:00
8:54 AM,30.2,26.6,86,29.82,10.0,North,15.0,19.6,N/A,,Mostly Cloudy,350,2013-02-05 14:54:00
9:13 AM,26.6,23.0,86,29.85,5.0,North,18.4,-,N/A,,Scattered Clouds,360,2013-02-05 15:13:00
9:34 AM,23.0,19.4,86,29.87,5.0,NNW,17.3,25.3,N/A,,Mostly Cloudy,340,2013-02-05 15:34:00
9:53 AM,21.2,19.4,93,29.89,7.0,North,19.6,-,N/A,,Scattered Clouds,350,2013-02-05 15:53:00
10:13 AM,19.4,15.8,86,29.91,7.0,NNW,19.6,24.2,N/A,,Scattered Clouds,340,2013-02-05 16:13:00
10:34 AM,19.4,15.8,86,29.92,7.0,NNW,20.7,-,N/A,,Scattered Clouds,330,2013-02-05 16:34:00
10:53 AM,17.6,15.8,93,29.94,10.0,NNW,18.4,23.0,N/A,,Scattered Clouds,330,2013-02-05 16:53:00
11:14 AM,17.6,14.0,86,29.96,10.0,NNW,17.3,-,N/A,,Mostly Cloudy,330,2013-02-05 17:14:00
11:34 AM,17.6,12.2,79,29.97,10.0,NNW,15.0,-,N/A,,Mostly Cloudy,330,2013-02-05 17:34:00
11:53 AM,17.6,12.2,79,29.98,10.0,NNW,12.7,-,N/A,,Mostly Cloudy,330,2013-02-05 17:53:00
12:14 PM,17.6,12.2,79,29.98,10.0,NNW,18.4,-,N/A,,Overcast,330,2013-02-05 18:14:00
12:34 PM,17.6,12.2,79,29.98,10.0,NNW,16.1,-,N/A,,Overcast,330,2013-02-05 18:34:00
12:53 PM,17.6,12.2,79,29.99,10.0,NNW,17.3,21.9,N/A,,Overcast,330,2013-02-05 18:53:00
1:14 PM,17.6,12.2,79,29.99,10.0,NNW,16.1,-,N/A,,Overcast,330,2013-02-05 19:14:00
1:34 PM,17.6,12.2,79,29.99,10.0,NW,16.1,-,N/A,,Overcast,320,2013-02-05 19:34:00
1:53 PM,17.6,10.4,73,30.00,10.0,NW,16.1,-,N/A,,Overcast,320,2013-02-05 19:53:00
2:14 PM,17.6,10.4,73,30.00,10.0,NNW,17.3,-,N/A,,Overcast,330,2013-02-05 20:14:00
2:34 PM,17.6,10.4,73,30.00,10.0,NW,11.5,-,N/A,,Overcast,320,2013-02-05 20:34:00
2:53 PM,17.6,10.4,73,30.01,10.0,NNW,12.7,-,N/A,,Overcast,330,2013-02-05 20:53:00
3:14 PM,17.6,10.4,73,30.02,10.0,NW,11.5,-,N/A,,Overcast,320,2013-02-05 21:14:00
3:34 PM,17.6,10.4,73,30.02,10.0,NNW,11.5,-,N/A,,Overcast,330,2013-02-05 21:34:00
3:53 PM,17.6,10.4,73,30.03,10.0,NW,12.7,-,N/A,,Overcast,320,2013-02-05 21:53:00
4:14 PM,15.8,10.4,79,30.03,10.0,NW,10.4,-,N/A,,Overcast,320,2013-02-05 22:14:00
4:33 PM,15.8,10.4,79,30.03,10.0,NNW,11.5,-,N/A,,Overcast,330,2013-02-05 22:33:00
4:54 PM,15.8,10.4,79,30.04,10.0,NW,9.2,-,N/A,,Overcast,320,2013-02-05 22:54:00
5:13 PM,15.8,10.4,79,30.04,10.0,NW,8.1,-,N/A,,Overcast,320,2013-02-05 23:13:00
5:33 PM,15.8,10.4,79,30.04,10.0,NW,6.9,-,N/A,,Overcast,320,2013-02-05 23:33:00
5:54 PM,17.6,10.4,73,30.04,10.0,NNW,6.9,-,N/A,,Overcast,330,2013-02-05 23:54:00
6:13 PM,17.6,10.4,73,30.04,10.0,North,8.1,-,N/A,,Overcast,350,2013-02-06 00:13:00
6:34 PM,15.8,10.4,79,30.05,10.0,North,5.8,-,N/A,,Overcast,350,2013-02-06 00:34:00
6:54 PM,15.8,10.4,79,30.05,10.0,NNE,5.8,-,N/A,,Overcast,20,2013-02-06 00:54:00
7:13 PM,15.8,8.6,73,30.05,10.0,North,5.8,-,N/A,,Overcast,10,2013-02-06 01:13:00
7:54 PM,14.0,8.6,79,30.06,10.0,NE,4.6,-,N/A,,Overcast,50,2013-02-06 01:54:00
8:34 PM,12.2,8.6,85,30.05,10.0,ENE,4.6,-,N/A,,Overcast,70,2013-02-06 02:34:00
8:54 PM,12.2,8.6,85,30.05,10.0,Calm,Calm,-,N/A,,Overcast,0,2013-02-06 02:54:00
9:13 PM,12.2,6.8,79,30.05,10.0,Calm,Calm,-,N/A,,Mostly Cloudy,0,2013-02-06 03:13:00
9:34 PM,12.2,6.8,79,30.06,10.0,Calm,Calm,-,N/A,,Clear,0,2013-02-06 03:34:00
9:54 PM,12.2,6.8,79,30.06,10.0,Calm,Calm,-,N/A,,Clear,0,2013-02-06 03:54:00
10:13 PM,8.6,6.8,92,30.07,10.0,SSE,3.5,-,N/A,,Clear,160,2013-02-06 04:13:00
10:34 PM,8.6,6.8,92,30.07,10.0,SSW,3.5,-,N/A,,Clear,200,2013-02-06 04:34:00
10:54 PM,10.4,6.8,85,30.07,10.0,SSE,4.6,-,N/A,,Clear,160,2013-02-06 04:54:00
11:13 PM,8.6,5.0,85,30.07,10.0,South,4.6,-,N/A,,Clear,170,2013-02-06 05:13:00
11:34 PM,8.6,6.8,92,30.07,10.0,SSE,5.8,-,N/A,,Clear,160,2013-02-06 05:34:00
11:54 PM,10.4,6.8,85,30.06,10.0,SSE,4.6,-,N/A,,Clear,150,2013-02-06 05:54:00